TITAN 3C TRANSTAGE DEB, 38705

Orbit data source: Space-Track

TITAN 3C TRANSTAGE DEB, 38705 is space debris in GEO originally from a launch on Thu, 26 Sep 1968 UTC launched from the Air Force Eastern Test Range (AFETR). Debris objects in space refer to the collection of defunct objects orbiting the Earth. Examples of debris include non-operational satellites, rocket bodies, and fragments generated from explosions, collisions, or faulty payload assembly.

Not visible in the next 10 days
Identifier
38705, 1968-081AF
Orbit
GEO
Last TLE update
1 day ago
Origin
Manufacturer
Unknown
Mission
Spacecraft
Bus & Motor
Unknown
Mass
Unknown
Launch date (UTC)
1968-09-26 (57 years ago)
Launch vehicle
Unknown
Launch site
Air Force Eastern Test Range (AFETR)
Object type
Payload
Rocket body
Debris
Shape & HBR
Unknown
Radar Cross Section
Small (<0.1 m²)

Expand to show TLE details & history

TLE from 1 day ago
0 TITAN 3C TRANSTAGE DEB
1 38705U 68081AF  25199.09205369 -.00000335  00000-0  00000-0 0  9998
2 38705   2.4191  59.4833 0291217   0.0272 359.9183  1.02086507 71653
Epoch: 2025-07-18T02:12Z
TLE epoch observation values (Epoch: 2025-07-18T02:12:33.438Z)
Latitude
-0°
Longitude
90.12664°
Altitude
34,073.08 km
Speed
3.184 km/s
True Right ascension
03h 57m 39s
True Declination
0° 00' 00"
Sunlit
Object was in daylight at epoch
Visualization orbit readout
Latitude
1.34079°
Longitude
123.37495°
Altitude
34,257.45 km
Speed
3.17 km/s
Apparent Right ascension
06h 00m 32s
Apparent Declination
-3° 57' 17"
Sunlit
Object is in daylight
Visualization observer readout
Local Sidereal Time
16:34:44
Azimuth
326.097° NNW
Elevation
-49.149°
Doppler factor
1
Orbital elements
Apogee altitude
36,499.84 km
Perigee altitude
34,073.15 km
Semi-major axis
41,664.632 km
Eccentricity
0.02912
Inclination
2.4191°
RAAN
59.4833°
Arg. of periapsis
0.0272°
True anomaly
359.91336°
Mean anomaly
359.9183°
Eccentric anomaly
359.91585°
Mean motion
0.25521 °/min
Orbital period
1,410.62 mins
BSTAR
0
Loading maneuver chart data...
Loading SW <> Apogee altitude chart data...
|